STARLINK-31938 (59865 NORAD) Tracking and Keplerian Element Data

This shows tracking and keplerian element data for the satellite.

Feedback or suggestion? Click here.




ElementValue
Catalog59865
NameSTARLINK-31938
Epoch Orbit359
Epoch Day160.16667824
Epoch Year2024
RAAN328.0209
Inclination43.0029
Eccentricity0.0002165
Argument of Perigee244.306
Mean Anonmoly228.2434
Mean Motion15.73524845
Decay Rate-0.01555839
L11 59865U 24098H 24160.16667824 -.01555839 00000+0 -12108-1 0 9999
L22 59865 43.0029 328.0209 0002165 244.3060 228.2434 15.73524845 3596



Live tracking and technical data element details for STARLINK-31938 (NORAD 59865). STARLINK-31938 can be tracked NOW for your location showing map with azimuth and elevation plus other details from your city location.







IsCatalogInMostPopularTable: catalog: 59865, numindb: 6
Update: records affected: 1



GetName: 59865 STARLINK-31938

Hit Count: updated at: Tue, 16 Jul 2024 03:54:30 GMT